Date String (YYYY-MM-DD hh:mm:ss) UTC,Instrument flags,Ambient pressure (hPa),Sample flow (lpm),Bypass flow (lpm),Sample temperature (°C),Ambient temperature (°C),ASC tube jacket temperature (°C),LED temperature (°C),Box temperature (°C),Sample RH (%),Span deviation,Mass concentration (μg/m³),Mass concentration (μg/m³),Mass concentration (μg/m³)
DateTimeUTC,F1_M11,P_M11,Q1_M11,Q2_M11,T1_M11,T2_M11,T3_M11,T4_M11,T5_M11,U1_M11,ZSPAN_M11,X2_M11,X0_M11,X1_M11
2023-01-09 10:00:00,,0824.9,4.99,0.00,22.0,20.3,00.0,31.0,23.5,11.3,0000.0,0000.95,0003.95,0000.73
2023-01-09 10:01:00,,0824.8,5.01,0.00,21.9,20.3,00.0,30.9,23.5,11.4,0000.0,0000.95,0003.95,0000.73
2023-01-09 10:02:00,,0824.9,4.99,0.00,21.9,20.3,00.0,30.9,23.5,11.8,0000.0,0000.94,0003.94,0000.73
2023-01-09 10:03:00,,0824.6,5.00,0.00,21.9,20.3,00.0,30.9,23.4,12.1,0000.0,0000.89,0003.00,0000.72
2023-01-09 10:04:00,,0824.6,5.01,0.00,21.9,20.3,00.0,30.9,23.4,11.9,0000.0,0000.86,0002.40,0000.72
2023-01-09 10:05:00,,0824.9,5.02,0.00,21.9,21.0,00.0,30.8,23.6,12.1,0000.0,0000.84,0002.36,0000.72
2023-01-09 10:06:00,,0824.9,5.00,0.00,22.0,22.2,00.0,30.8,23.9,11.8,0000.0,0000.83,0002.26,0000.72
2023-01-09 10:07:00,,0824.8,5.01,0.00,22.1,22.9,00.0,30.8,24.1,11.6,0000.0,0000.83,0002.23,0000.72
2023-01-09 10:08:00,,0824.7,4.99,0.00,22.2,22.5,00.0,30.9,24.1,11.5,0000.0,0000.82,0002.07,0000.72
2023-01-09 10:09:00,,0824.7,5.00,0.00,22.2,22.0,00.0,30.9,24.0,11.6,0000.0,0000.81,0001.15,0000.72
2023-01-09 10:10:00,,0824.9,5.00,0.00,22.2,21.6,00.0,30.9,23.9,11.7,0000.0,0000.79,0001.08,0000.71
2023-01-09 10:11:00,,0824.9,5.00,0.00,22.2,21.3,00.0,30.9,23.9,11.7,0000.0,0000.82,0001.15,0000.71
2023-01-09 10:12:00,,0824.9,5.01,0.00,22.2,21.1,00.0,30.9,23.8,11.9,0000.0,0000.83,0001.19,0000.71
2023-01-09 10:13:00,,0824.9,5.01,0.00,22.1,20.9,00.0,30.9,23.7,11.7,0000.0,0000.82,0001.15,0000.70
2023-01-09 10:14:00,,0824.8,4.99,0.00,22.1,20.7,00.0,30.9,23.7,11.7,0000.0,0000.84,0001.20,0000.70
2023-01-09 10:15:00,,0824.9,5.00,0.00,22.0,20.6,00.0,30.9,23.6,11.7,0000.0,0000.90,0001.34,0000.71
2023-01-09 10:16:00,,0824.6,5.01,0.00,22.0,20.5,00.0,30.9,23.6,11.7,0000.0,0000.92,0001.38,0000.70
2023-01-09 10:17:00,,0824.4,5.00,0.00,22.0,20.4,00.0,30.9,23.5,11.5,0000.0,0000.91,0001.36,0000.70
2023-01-09 10:18:00,,0824.4,5.01,0.00,21.9,20.3,00.0,30.9,23.5,11.5,0000.0,0000.90,0001.33,0000.70
2023-01-09 10:19:00,,0824.5,5.00,0.00,21.9,20.2,00.0,30.8,23.4,11.8,0000.0,0000.92,0001.36,0000.70
2023-01-09 10:20:00,,0824.5,4.98,0.00,21.9,20.4,00.0,30.8,23.5,11.9,0000.0,0000.91,0001.36,0000.69
2023-01-09 10:21:00,,0824.3,5.02,0.00,22.0,21.6,00.0,30.8,23.8,11.7,0000.0,0000.91,0001.36,0000.70
2023-01-09 10:22:00,,0824.3,5.00,0.00,22.1,22.6,00.0,30.8,24.1,11.9,0000.0,0000.90,0001.32,0000.70
2023-01-09 10:23:00,,0824.2,4.99,0.00,22.2,22.7,00.0,30.9,24.2,11.9,0000.0,0000.88,0001.25,0000.70
2023-01-09 10:24:00,,0824.2,5.00,0.00,22.2,22.2,00.0,31.0,24.2,11.8,0000.0,0000.88,0001.25,0000.71
2023-01-09 10:25:00,,0824.2,5.00,0.00,22.2,21.7,00.0,31.0,24.1,11.7,0000.0,0000.86,0001.20,0000.70
2023-01-09 10:26:00,,0824.1,5.00,0.00,22.2,21.4,00.0,31.0,23.9,11.8,0000.0,0000.81,0001.80,0000.69
2023-01-09 10:27:00,,0824.1,5.01,0.00,22.2,21.1,00.0,31.0,23.8,11.8,0000.0,0000.79,0002.06,0000.69
2023-01-09 10:28:00,,0824.0,4.98,0.00,22.2,20.9,00.0,31.0,23.7,11.8,0000.0,0000.81,0002.12,0000.68
2023-01-09 10:29:00,,0824.1,5.00,0.00,22.1,20.6,00.0,31.0,23.7,11.9,0000.0,0000.82,0002.18,0000.67
2023-01-09 10:30:00,,0824.1,5.01,0.00,22.1,20.4,00.0,31.0,23.6,11.8,0000.0,0000.83,0002.20,0000.67
2023-01-09 10:31:00,,0824.1,5.00,0.00,22.0,20.3,00.0,30.9,23.5,11.8,0000.0,0000.87,0002.33,0000.68
2023-01-09 10:32:00,,0824.0,5.00,0.00,22.0,20.7,00.0,30.9,23.6,12.0,0000.0,0000.88,0002.49,0000.67
2023-01-09 10:33:00,,0824.1,4.99,0.00,22.1,21.8,00.0,30.9,24.0,12.0,0000.0,0000.87,0002.47,0000.66
2023-01-09 10:34:00,,0824.1,5.00,0.00,22.2,22.7,00.0,30.9,24.3,11.8,0000.0,0000.87,0002.47,0000.65
2023-01-09 10:35:00,,0824.1,4.99,0.00,22.4,23.1,00.0,31.0,24.5,11.8,0000.0,0000.87,0002.46,0000.64
2023-01-09 10:36:00,,0824.1,5.00,0.00,22.4,22.6,00.0,31.1,24.4,11.8,0000.0,0000.87,0002.48,0000.64
2023-01-09 10:37:00,,0824.1,5.02,0.00,22.4,22.1,00.0,31.1,24.3,11.7,0000.0,0000.87,0001.93,0000.64
2023-01-09 10:38:00,,0824.1,5.00,0.00,22.4,21.7,00.0,31.1,24.1,11.7,0000.0,0000.87,0001.60,0000.63
2023-01-09 10:39:00,,0824.0,4.99,0.00,22.4,21.3,00.0,31.1,24.0,11.7,0000.0,0000.88,0001.61,0000.64
2023-01-09 10:40:00,,0824.1,5.00,0.00,22.3,21.0,00.0,31.1,23.9,11.6,0000.0,0000.87,0001.58,0000.64
2023-01-09 10:41:00,,0824.2,5.01,0.00,22.3,20.7,00.0,31.1,23.8,11.8,0000.0,0000.89,0001.60,0000.64
2023-01-09 10:42:00,,0824.2,4.99,0.00,22.2,20.5,00.0,31.1,23.7,12.2,0000.0,0000.91,0001.80,0000.64
2023-01-09 10:43:00,,0824.2,5.00,0.00,22.1,20.4,00.0,31.1,23.6,12.1,0000.0,0000.90,0002.15,0000.64
2023-01-09 10:44:00,,0824.0,5.01,0.00,22.1,20.3,00.0,31.1,23.6,12.1,0000.0,0000.89,0002.12,0000.64
2023-01-09 10:45:00,,0824.0,5.00,0.00,22.0,20.1,00.0,31.0,23.5,11.9,0000.0,0000.90,0002.14,0000.65
2023-01-09 10:46:00,,0824.1,5.01,0.00,22.0,20.8,00.0,31.0,23.7,12.0,0000.0,0000.89,0002.21,0000.65
2023-01-09 10:47:00,,0824.3,5.00,0.00,22.2,21.9,00.0,31.0,24.0,11.9,0000.0,0000.90,0002.24,0000.65
2023-01-09 10:48:00,,0824.2,4.99,0.00,22.3,22.8,00.0,31.0,24.4,11.8,0000.0,0000.88,0002.17,0000.64
2023-01-09 10:49:00,,0824.2,4.99,0.00,22.4,23.1,00.0,31.1,24.6,11.7,0000.0,0000.88,0002.10,0000.64
2023-01-09 10:50:00,,0824.2,4.99,0.00,22.5,22.6,00.0,31.1,24.5,11.8,0000.0,0000.86,0002.05,0000.63
2023-01-09 10:51:00,,0824.3,5.00,0.00,22.5,22.1,00.0,31.2,24.3,11.9,0000.0,0000.83,0001.99,0000.63
2023-01-09 10:52:00,,0824.3,5.00,0.00,22.5,21.6,00.0,31.2,24.2,11.8,0000.0,0000.80,0002.29,0000.62
2023-01-09 10:53:00,,0824.4,5.00,0.00,22.4,21.2,00.0,31.2,24.0,11.9,0000.0,0000.75,0002.70,0000.61
2023-01-09 10:54:00,,0824.3,5.00,0.00,22.3,20.9,00.0,31.2,23.9,12.0,0000.0,0000.73,0002.15,0000.61
2023-01-09 10:55:00,,0824.6,5.00,0.00,22.3,20.7,00.0,31.2,23.8,12.0,0000.0,0000.73,0002.13,0000.61
2023-01-09 10:56:00,,0824.7,5.01,0.00,22.2,20.5,00.0,31.1,23.7,12.2,0000.0,0000.72,0002.12,0000.60
2023-01-09 10:57:00,,0824.5,4.99,0.00,22.2,20.4,00.0,31.1,23.7,12.3,0000.0,0000.71,0002.05,0000.60
2023-01-09 10:58:00,,0824.6,5.00,0.00,22.1,20.2,00.0,31.1,23.6,12.0,0000.0,0000.70,0002.01,0000.59
2023-01-09 10:59:00,,0824.5,5.00,0.00,22.1,20.5,00.0,31.1,23.6,12.1,0000.0,0000.71,0002.02,0000.60
